User: anonymous   Login
Location: Unspecified
(0.0000°N, 0.0000°E)
Time: 16:08:31
(UTC+00:00)
Language:

Vela 6A - Orbit

View from above orbital plane
View from above orbital plane
View from above satellite
View from above satellite

Ground track
Ground track

The orbit data is extracted from the following two-line orbital elements,

1 04366U 70027A   14297.38481961  .00000588  00000-0  00000+0 0   180
2 04366 051.3063 246.4633 7124958 083.8226 000.5501 00.21439577 28595
Epoch (UTC): 24 October 2014 09:14:08
Eccentricity: 0.7124958
inclination: 51.3063°
perigee height: 27524 km
apogee height: 195559 km
right ascension of ascending node: 246.4633°
argument of perigee: 83.8226°
revolutions per day: 0.21439577
mean anomaly at epoch: 0.5501°
orbit number at epoch: 2859

The dashed part of the orbit path shows where the satellite is in the earth's shadow,  

DLR